Regional Weather Roundup
Issued by NWS

Home | Current Version | Previous Version | Graphics & Text | Print | Product List | Glossary On
Versions: 1 2 3 4 5 6 7 8 9 10 11 12 13 14 15 16 17 18 19 20 21 22 23 24 25 26 27 28 29 30 31 32 33 34 35 36 37 38 39 40 41 42 43 44 45 46 47 48 49 50
005
ASUS45 KABQ 071901
RWRNM
NEW MEXICO REGIONAL WEATHER ROUNDUP
NATIONAL WEATHER SERVICE ALBUQUERQUE NM
1200 PM MST SUN FEB 07 2016

NOTE: "FAIR" MEANS FEW OR NO CLOUDS BELOW 12,000 FEET AGL WITH NO
       SIGNIFICANT WEATHER OR OBSTRUCTIONS TO VISION.

      THIS PRODUCT IS RELEASED AS TWO VERSIONS.  ONE VERSION NEAR
      THE TOP OF THE HOUR CONTAINING PRELIMINARY DATA FROM ALBUQUERQUE
      AND OTHER STATIONS.  A FINAL VERSION WITH ADDITIONAL DATA IS
      ISSUED ABOUT 10 MINUTES AFTER THE HOUR.

NMZ501-503-504-510>518-072000-
NORTHWEST PLATEAU/NORTHCENTRAL MOUNTAINS

CITY           SKY/WX    TMP DP  RH WIND       PRES   REMARKS
FARMINGTON     CLOUDY    34  18  52 N6        30.42F WCI  29
SANTA FE       CLOUDY    43  15  32 NW15      30.35F
TAOS           CLOUDY    32  16  51 CALM      30.38F

$$
NMZ402-403-502-505>509-072000-
WESTCENTRAL MOUNTAINS/SOUTHWEST MOUNTAINS

CITY           SKY/WX    TMP DP  RH WIND       PRES   REMARKS
GALLUP         SUNNY     45  16  31 CALM      30.42F
GRANTS         SUNNY     53  16  23 N21       30.40F
SILVER CITY      N/A     57   7  13 SE8       30.34F

$$
NMZ407-409-411-412-072000-
SOUTHERN DESERTS

CITY           SKY/WX    TMP DP  RH WIND       PRES   REMARKS
DEMING         SUNNY     59  13  16 E13       30.31F
HOLLOMAN AFB   SUNNY     59  12  16 NW16      30.27F
ALAMOGORDO     SUNNY     59  10  14 N13       30.27F
T OR C         SUNNY     53  13  20 N7        30.32F

$$
NMZ519>523-072000-
CENTRAL VALLEYS/CENTRAL HIGHLANDS

CITY           SKY/WX    TMP DP  RH WIND       PRES   REMARKS
ALBUQUERQUE    MOSUNNY   49  15  25 NW10      30.37F
DOUBLE EAGLE   MOSUNNY   48  18  29 NW9       30.38F
MORIARTY ARPT  FAIR      52  13  21 NW17G24   30.33F
CLINES CORNERS SUNNY     43  20  39 NW18      30.29F
BELEN          FAIR      48  14  25 N7        30.38F
SOCORRO        NOT AVBL

$$
NMZ524>526-539-540-072000-
SOUTHCENTRAL MOUNTAINS

CITY           SKY/WX    TMP DP  RH WIND       PRES   REMARKS
RUIDOSO        NOT AVBL

$$
NMZ527>531-072000-
NORTHEAST HIGHLANDS/NORTHEAST PLAINS

CITY           SKY/WX    TMP DP  RH WIND       PRES   REMARKS
LAS VEGAS      CLOUDY    51  11  20 S5        30.27F
RATON          SUNNY     52  12  20 S6        30.23F
CLAYTON        SUNNY     51  19  28 NE14G24   30.25F

$$
NMZ532>537-072000-
EASTCENTRAL PLAINS

CITY           SKY/WX    TMP DP  RH WIND       PRES   REMARKS
TUCUMCARI      CLOUDY    56  18  22 E6        30.26F
CANNON AFB     SUNNY     57  19  22 E13G20    30.24F
CLOVIS AIRPORT SUNNY     57  21  24 NE15      30.25F

$$
NMZ028-029-538-072000-
SOUTHEAST PLAINS

CITY           SKY/WX    TMP DP  RH WIND       PRES   REMARKS
ROSWELL        SUNNY     65  16  15 N18       30.20F
ARTESIA        SUNNY     61  18  18 NE9       30.21F
CARLSBAD       SUNNY     64  15  15 NE8       30.19F
HOBBS          SUNNY     64  16  15 N14G20    30.21F


$$




USA.gov is the U.S. government's official web portal to all federal, state and local government web resources and services.